Regional Weather Roundup
Issued by NWS Goodland, KS

Home | Current Version | Previous Version | Text Only | Print | Product List | Glossary Off
Versions: 1 2 3 4 5 6 7 8 9 10 11 12 13 14 15 16 17 18 19 20 21 22 23 24 25 26 27 28 29 30 31 32 33 34 35 36 37 38 39 40 41 42 43 44 45 46 47 48 49 50

000
ASUS43 KGLD 151459
RWRGLD

GOODLAND FORECAST AREA HOURLY WEATHER ROUNDUP
NATIONAL WEATHER SERVICE GOODLAND KS
900 AM MDT MON SEP 15 2014

...OFFICIAL OBSERVATIONS...

CITY           SKY/WX    TMP DP  RH WIND       PRES   REMARKS
GOODLAND KS    NOT AVBL
HILL CITY KS   NOT AVBL
IMPERIAL NEB   NOT AVBL
MCCOOK NEB     NOT AVBL
AKRON CO       NOT AVBL
BURLINGTON CO  NOT AVBL
LIMON CO       NOT AVBL
$$

...UNOFFICIAL OBSERVATIONS...

CITY           SKY/WX    TMP DP  RH WIND       PRES   REMARKS
COLBY KS       CLOUDY    54  52  94 N12G17    30.27R
GOVE KS          N/A     58  32  37 MISG        N/A
NORTON KS      CLOUDY    54  45  71 N14G20    30.24R
SHARON SPRINGS   N/A     56  55  95 NE15        N/A
WAKEENEY KS      N/A     58  57  97 MISG        N/A
TRENTON NEB      N/A     53  32  45 N13         N/A
KIT CARSON CO    N/A     56  52  88 CALM        N/A
$$



USA.gov is the U.S. government's official web portal to all federal, state and local government web resources and services.